Database: COMPET-N - COOP - 3PL - 4PL - CNDOOM

WAD: Doom | Doom 2 | TNT | Plutonia | AV | HR | Scythe | MM | MM2 | Requiem | CE
Category: speed | nmare | max | nm100s | tyson | pacifist | fast | respawn | nomo | misc | built | all
Highscore: ALL | IWAD | PWAD | Country | Continent

< Previous map       Next map >
Remove: wad | map | category | player | allMAP09
MapPlayerTimeDateFilenameCommentsDL
MAP09: Deep Down BelowArtem Safronov1:49.002007-09-29rq09-149.zip - 343
MAP09: Deep Down BelowAndrey Boldt1:56.002008-08-26rq09-156.zip - 251
MAP09: Deep Down BelowJim Leonard2:04.002002-04-30rq09-204.zip - 234
MAP09: Deep Down BelowOyvind Stenhaug2:10.002001-11-22rq09-210.zip - 210
MAP09: Deep Down BelowJim Leonard2:16.002001-11-16rq09-216.zip - 201
MAP09: Deep Down BelowOyvind Stenhaug2:45.002001-09-17rq09-245.zip - 207
MAP09: Deep Down BelowJim Leonard3:16.002001-09-14rq09-316.zip - 257
MAP09: Deep Down BelowArtem Safronov3:18.002006-04-03rs09-318.zip - 362
MAP09: Deep Down BelowJim Leonard6:31.002002-06-20rs09-631.zip - 221
MAP09: Deep Down BelowJim Leonard6:46.002001-09-17rn09-646.zip - 215
MAP09: Deep Down BelowTatsuya Ito5:28.002014-10-20rq09-528.zip793
MAP09: Deep Down BelowAndrey Boldt5:52.002008-08-27rq09-552.zip - 235
MAP09: Deep Down BelowJim Leonard6:20.002002-07-02rq09-620.zip - 224
MAP09: Deep Down BelowRudy Jurjako6:21.001998-07-05rq09-621.zip - 139
MAP09: Deep Down BelowYonatan Donner9:24.001997-07-11rq09-924.zip - 177
MAP09: Deep Down BelowArtem Safronov3:18.002006-04-03rs09-318.zip - 395
MAP09: Deep Down BelowJim Leonard6:31.002002-06-20rs09-631.zip - 208
MAP09: Deep Down BelowTomas Kollar9:16.002004-03-24rf09-916.zip - 282
MAP09: Deep Down BelowJim Leonard10:32.002001-07-12rf091032.zip - 213
MAP09: Deep Down BelowJim Leonard7:35.002002-06-16rr09-735.zip - 300
Remove: wad | map | category | player | all